Location: Nashville
(36.1660°N, 86.7840°W)
Time: 04:43:33
(UTC-05:00)

AO-92 - Visible Passes

Search period start: 16 May 2022 00:00
Search period end: 26 May 2022 00:00
Orbit: 473 x 486 km, 97.4° (Epoch: 15 May)

Date Brightness Start Highest point End Pass type
(mag) Time Alt. Az. Time Alt. Az. Time Alt. Az.
16 May ? 22:36:53 22° NNE 22:36:53 22° NNE 22:38:23 10° N visible
17 May ? 22:10:39 16° NE 22:10:39 16° NE 22:11:50 10° NNE visible
17 May ? 23:44:54 11° NW 23:44:54 11° NW 23:45:06 10° NW visible
18 May ? 23:18:38 19° NNW 23:18:38 19° NNW 23:19:50 10° NNW visible
19 May ? 22:52:21 25° N 22:52:21 25° N 22:53:59 10° N visible
20 May ? 22:26:03 21° NNE 22:26:03 21° NNE 22:27:41 10° N visible
21 May ? 21:59:42 13° NE 21:59:42 13° NE 22:00:39 10° NE visible
21 May ? 23:33:57 15° NW 23:33:57 15° NW 23:34:50 10° NW visible
22 May ? 23:07:35 25° NNW 23:07:35 25° NNW 23:09:11 10° NNW visible
23 May ? 22:41:11 27° NNE 22:41:11 27° NNE 22:43:03 10° N visible
24 May ? 22:14:46 19° NE 22:14:46 19° NE 22:16:24 10° NNE visible
24 May ? 23:49:00 11° NW 23:49:00 11° NW 23:49:18 10° NW visible
25 May ? 23:22:33 21° NW 23:22:33 21° NW 23:23:59 10° NNW visible
